• In Belarus
  • List of Countries
  • For 7 days
  • Water Temperature
  • Satellite Maps
  • Weather Map
  • Weather Widgets
  • user-avatar
    Login

    Hourly Weather Klagenfurt

    Today, 23 February, Saturday

    Time Temperature Precipitation Wind Pressure Humidity
    00:00 +1°C° 0 mm 2 mps 699 mmHg 83%
    01:00 +1°C° 0 mm 2 mps 700 mmHg 84%
    02:00 -1°C° 0 mm 2 mps 700 mmHg 83%
    03:00 -2°C° 0 mm 2 mps 700 mmHg 81%
    04:00 -3°C° 0 mm 2 mps 700 mmHg 80%
    05:00 -3°C° 0 mm 2 mps 701 mmHg 77%
    06:00 -4°C° 0 mm 2 mps 701 mmHg 74%
    07:00 -4°C° 0 mm 2 mps 701 mmHg 70%
    08:00 -3°C° 0 mm 2 mps 701 mmHg 59%
    09:00 -2°C° 0 mm 3 mps 702 mmHg 47%
    10:00 -1°C° 0 mm 3 mps 702 mmHg 36%
    11:00 0°C° 0 mm 3 mps 702 mmHg 31%
    12:00 +2°C° 0 mm 3 mps 702 mmHg 26%
    13:00 +3°C° 0 mm 3 mps 702 mmHg 21%
    14:00 +3°C° 0 mm 3 mps 702 mmHg 23%
    15:00 +3°C° 0 mm 3 mps 701 mmHg 24%
    16:00 +4°C° 0 mm 2 mps 701 mmHg 25%
    17:00 +2°C° 0 mm 2 mps 701 mmHg 31%
    18:00 -1°C° 0 mm 2 mps 701 mmHg 36%
    19:00 -1°C° 0 mm 1 mps 701 mmHg 42%
    20:00 -1°C° 0 mm 1 mps 702 mmHg 44%
    21:00 -1°C° 0 mm 1 mps 702 mmHg 46%
    22:00 -2°C° 0 mm 1 mps 702 mmHg 48%
    23:00 -2°C° 0 mm 1 mps 702 mmHg 48%

    Tomorrow, 24 February, Sunday

    Time Temperature Precipitation Wind Pressure Humidity
    00:00 -2°C° 0 mm 1 mps 702 mmHg 49%
    01:00 -2°C° 0 mm 1 mps 702 mmHg 50%
    02:00 -2°C° 0 mm 1 mps 702 mmHg 49%
    03:00 -2°C° 0 mm 1 mps 701 mmHg 49%
    04:00 -2°C° 0 mm 1 mps 701 mmHg 48%
    05:00 -2°C° 0 mm 1 mps 701 mmHg 47%
    06:00 -2°C° 0 mm 1 mps 701 mmHg 46%
    07:00 -2°C° 0 mm 1 mps 701 mmHg 45%
    08:00 0°C° 0 mm 1 mps 702 mmHg 38%
    09:00 +2°C° 0 mm 1 mps 702 mmHg 32%
    10:00 +4°C° 0 mm 1 mps 702 mmHg 26%
    11:00 +5°C° 0 mm 1 mps 702 mmHg 26%
    12:00 +6°C° 0 mm 2 mps 702 mmHg 25%
    13:00 +7°C° 0 mm 2 mps 702 mmHg 24%
    14:00 +7°C° 0 mm 2 mps 702 mmHg 27%
    15:00 +7°C° 0 mm 2 mps 702 mmHg 31%
    16:00 +7°C° 0 mm 2 mps 702 mmHg 34%
    17:00 +6°C° 0 mm 1 mps 702 mmHg 39%
    18:00 +4°C° 0 mm 1 mps 701 mmHg 45%
    19:00 +2°C° 0 mm 1 mps 701 mmHg 50%
    20:00 +2°C° 0 mm 1 mps 701 mmHg 53%
    21:00 +1°C° 0 mm 1 mps 702 mmHg 57%
    22:00 +1°C° 0 mm 1 mps 702 mmHg 61%
    23:00 +1°C° 0 mm 1 mps 702 mmHg 63%

    Day after tomorrow, 25 February, Monday

    Time Temperature Precipitation Wind Pressure Humidity
    00:00 +2°C° 0 mm 1 mps 702 mmHg 66%
    01:00 +2°C° 0 mm 1 mps 702 mmHg 69%
    02:00 +2°C° 0 mm 1 mps 702 mmHg 71%
    03:00 +2°C° 0 mm 1 mps 701 mmHg 74%
    04:00 +2°C° 0 mm 1 mps 701 mmHg 76%
    05:00 +3°C° 0.1 mm 1 mps 701 mmHg 79%
    06:00 +3°C° 0.1 mm 1 mps 701 mmHg 81%
    07:00 +3°C° 0.1 mm 1 mps 701 mmHg 83%
    08:00 +4°C° 0.1 mm 1 mps 702 mmHg 80%
    09:00 +5°C° 0.1 mm 1 mps 702 mmHg 76%
    10:00 +6°C° 0.1 mm 1 mps 702 mmHg 72%
    11:00 +7°C° 0 mm 2 mps 702 mmHg 67%
    12:00 +8°C° 0 mm 2 mps 703 mmHg 63%
    13:00 +9°C° 0 mm 2 mps 703 mmHg 58%
    14:00 +9°C° 0 mm 2 mps 702 mmHg 58%
    15:00 +9°C° 0 mm 2 mps 702 mmHg 59%
    16:00 +9°C° 0 mm 2 mps 702 mmHg 60%
    17:00 +8°C° 0 mm 1 mps 702 mmHg 67%
    18:00 +6°C° 0 mm 1 mps 701 mmHg 74%
    19:00 +4°C° 0 mm 1 mps 701 mmHg 81%
    20:00 +4°C° 0 mm 1 mps 701 mmHg 82%
    21:00 +3°C° 0 mm 1 mps 701 mmHg 84%
    22:00 +3°C° 0 mm 1 mps 701 mmHg 85%
    23:00 +3°C° 0 mm 1 mps 701 mmHg 84%

    26 February, Tuesday

    Time Temperature Precipitation Wind Pressure Humidity
    00:00 +2°C° 0 mm 1 mps 701 mmHg 83%
    01:00 +2°C° 0 mm 1 mps 701 mmHg 82%
    02:00 +2°C° 0 mm 1 mps 701 mmHg 79%
    03:00 +2°C° 0 mm 1 mps 700 mmHg 76%
    04:00 +2°C° 0 mm 1 mps 700 mmHg 73%
    05:00 +2°C° 0 mm 1 mps 700 mmHg 70%
    06:00 +2°C° 0 mm 1 mps 700 mmHg 67%
    07:00 +1°C° 0 mm 1 mps 699 mmHg 64%
    08:00 +4°C° 0 mm 1 mps 700 mmHg 56%
    09:00 +7°C° 0 mm 1 mps 700 mmHg 48%
    10:00 +10°C° 0 mm 1 mps 701 mmHg 40%
    11:00 +11°C° 0 mm 1 mps 701 mmHg 36%
    12:00 +13°C° 0 mm 1 mps 700 mmHg 32%
    13:00 +15°C° 0 mm 1 mps 700 mmHg 28%
    14:00 +14°C° 0 mm 1 mps 700 mmHg 33%
    15:00 +14°C° 0 mm 1 mps 700 mmHg 37%
    16:00 +14°C° 0 mm 1 mps 699 mmHg 41%
    17:00 +12°C° 0 mm 1 mps 699 mmHg 48%
    18:00 +9°C° 0 mm 1 mps 699 mmHg 55%
    19:00 +7°C° 0 mm 1 mps 699 mmHg 62%
    20:00 +7°C° 0 mm 1 mps 699 mmHg 64%
    21:00 +6°C° 0 mm 1 mps 699 mmHg 65%
    22:00 +4°C° 0 mm 2 mps 698 mmHg 67%
    23:00 +4°C° 0 mm 2 mps 698 mmHg 65%

    27 February, Wednesday

    Time Temperature Precipitation Wind Pressure Humidity
    00:00 +4°C° 0 mm 2 mps 698 mmHg 63%
    01:00 +5°C° 0 mm 1 mps 698 mmHg 61%
    02:00 +5°C° 0 mm 1 mps 697 mmHg 60%
    03:00 +5°C° 0 mm 1 mps 697 mmHg 59%
    04:00 +4°C° 0 mm 1 mps 697 mmHg 58%
    05:00 +4°C° 0 mm 1 mps 697 mmHg 58%
    06:00 +4°C° 0 mm 1 mps 697 mmHg 58%
    07:00 +4°C° 0 mm 1 mps 697 mmHg 58%
    08:00 +6°C° 0 mm 1 mps 697 mmHg 53%
    09:00 +9°C° 0 mm 1 mps 698 mmHg 49%
    10:00 +11°C° 0 mm 1 mps 698 mmHg 44%
    11:00 +13°C° 0 mm 1 mps 698 mmHg 42%
    12:00 +15°C° 0 mm 1 mps 698 mmHg 40%
    13:00 +16°C° 0 mm 1 mps 698 mmHg 38%
    14:00 +16°C° 0 mm 1 mps 698 mmHg 41%
    15:00 +16°C° 0 mm 1 mps 697 mmHg 43%
    16:00 +15°C° 0 mm 1 mps 697 mmHg 46%
    17:00 +12°C° 0 mm 0 mps 696 mmHg 52%
    18:00 +10°C° 0 mm 0 mps 696 mmHg 59%
    19:00 +8°C° 0 mm 0 mps 696 mmHg 66%
    20:00 +7°C° 0 mm 0 mps 696 mmHg 68%
    21:00 +6°C° 0 mm 0 mps 696 mmHg 71%
    22:00 +6°C° 0 mm 0 mps 695 mmHg 74%
    23:00 +6°C° 0 mm 0 mps 695 mmHg 75%

    28 February, Thursday

    Time Temperature Precipitation Wind Pressure Humidity
    00:00 +6°C° 0 mm 1 mps 695 mmHg 76%
    01:00 +6°C° 0 mm 1 mps 695 mmHg 78%
    02:00 +6°C° 0 mm 1 mps 694 mmHg 78%
    03:00 +6°C° 0 mm 1 mps 694 mmHg 79%
    04:00 +5°C° 0 mm 1 mps 694 mmHg 80%
    05:00 +5°C° 0 mm 1 mps 694 mmHg 80%
    06:00 +5°C° 0 mm 1 mps 694 mmHg 80%
    07:00 +5°C° 0 mm 1 mps 693 mmHg 80%
    08:00 +7°C° 0 mm 1 mps 694 mmHg 71%
    09:00 +10°C° 0 mm 1 mps 694 mmHg 62%
    10:00 +13°C° 0 mm 1 mps 694 mmHg 53%
    11:00 +14°C° 0 mm 1 mps 694 mmHg 49%
    12:00 +16°C° 0 mm 1 mps 694 mmHg 44%
    13:00 +18°C° 0 mm 1 mps 694 mmHg 39%
    14:00 +18°C° 0 mm 1 mps 693 mmHg 41%
    15:00 +16°C° 0 mm 1 mps 693 mmHg 43%
    16:00 +16°C° 0 mm 1 mps 692 mmHg 45%
    17:00 +14°C° 0 mm 1 mps 692 mmHg 53%
    18:00 +12°C° 0 mm 1 mps 692 mmHg 61%
    19:00 +9°C° 0 mm 1 mps 691 mmHg 69%
    20:00 +9°C° 0 mm 1 mps 691 mmHg 72%
    21:00 +8°C° 0 mm 1 mps 691 mmHg 75%
    22:00 +7°C° 0 mm 1 mps 691 mmHg 78%
    23:00 +7°C° 0 mm 1 mps 691 mmHg 78%
    Show more